Location: Chervonnoye
(48.6000°N, 34.4000°E)
Time: 14:37:36
(UTC+00:00)

Cosmos 2366 rocket - Pass Details

Date: 23 November 2020
Orbit: 955 x 997 km, 82.9° (Epoch: 27 January)

Event Time Altitude Azimuth Distance (km) Brightness Sun altitude
Rises 16:35:20 0° 348° (NNW) 3,685 7.2 -26.1°
Reaches altitude 10° 16:37:53 10° 345° (NNW) 2,727 6.5 -26.5°
Maximum altitude 16:43:59 60° 267° (W) 1,103 4.4 -27.5°
Drops below altitude 10° 16:50:00 10° 189° (S) 2,685 6.4 -28.5°
Sets 16:52:31 0° 186° (S) 3,624 7.0 -28.9°
